GFSGBSN_sfc_temp_057.txt.gz
Temp
62 62 62 62 62 62 63 62 62 61 61 60 60 60 60 60 60 59 58 58 58 58 58 59 59 59 58 58 64 79 68 68 73 75 73 73 69 68 63 66 68 67 67 67 67 66 65
61 61 61 61 61 61 63 62 61 61 60 60 60 59 59 59 59 59 58 57 57 57 58 59 59 59 55 54 81 80 79 76 78 75 74 74 72 74 69 68 65 69 67 66 66 66 68
60 60 60 60 60 61 61 61 61 61 60 60 60 59 59 59 58 58 58 57 57 57 58 59 59 61 59 60 78 77 82 82 80 79 74 77 77 70 69 66 73 68 62 65 66 67 66
60 60 60 60 59 59 59 60 60 60 60 60 60 59 58 58 57 57 57 57 57 57 58 58 59 59 54 79 75 79 80 81 84 83 81 80 78 71 66 69 68 62 61 54 65 68 67
59 59 60 59 59 59 59 59 59 60 60 60 59 59 58 57 57 56 56 56 56 57 58 59 55 56 57 79 75 81 82 80 82 82 78 85 73 65 67 58 56 59 49 54 59 67 65
59 59 59 59 59 59 59 59 58 59 59 59 59 59 58 57 57 56 55 56 58 56 60 64 66 55 65 71 80 82 83 84 78 73 71 69 66 61 61 58 46 51 52 57 55 57 62
59 59 59 59 59 59 59 59 58 58 58 59 59 59 58 57 57 56 54 57 55 54 58 59 63 64 73 81 84 78 83 79 77 69 59 66 57 54 59 62 63 62 59 56 61 65 61
58 58 58 58 59 59 59 59 58 57 58 58 58 58 58 57 57 57 53 52 63 63 55 67 68 70 75 78 71 76 82 69 66 60 62 58 52 64 67 66 63 61 58 56 65 66 63
57 57 58 58 58 59 59 59 58 57 57 57 57 58 58 57 57 53 54 59 70 66 53 64 71 69 71 76 70 71 76 72 63 61 59 55 59 65 63 60 59 59 55 56 57 61 62
56 56 56 57 57 58 58 59 58 57 57 57 57 57 57 55 52 57 55 67 66 62 45 58 66 71 74 75 67 79 80 73 64 59 61 58 64 64 60 58 62 52 64 63 60 54 46
55 55 56 56 57 57 57 57 57 58 57 56 56 57 56 56 51 54 66 66 67 61 33 65 68 80 75 69 70 71 80 72 63 63 59 58 58 59 57 60 66 57 66 62 59 54 50
54 54 55 55 55 56 56 56 56 57 56 56 56 56 55 54 52 57 63 64 62 45 35 61 69 66 65 68 69 72 72 73 71 65 65 60 66 64 61 67 68 67 62 58 54 52 41
54 54 53 55 55 55 56 56 56 56 56 56 55 55 55 64 55 64 61 57 42 37 63 60 61 65 63 62 64 66 64 60 55 50 50 59 60 67 68 59 63 60 53 39 35 34 36
53 53 53 54 54 55 55 56 55 55 55 55 54 54 54 61 61 60 58 49 37 52 54 68 65 63 58 63 62 64 60 54 61 58 52 48 46 58 66 60 56 55 52 39 33 32 38
51 52 53 52 54 54 55 55 55 55 55 55 54 53 52 57 59 57 51 41 41 54 63 62 64 56 56 62 62 60 57 56 60 62 51 48 50 61 67 67 63 53 46 56 47 46 37
51 51 52 52 53 54 54 55 55 55 54 53 52 52 52 60 59 54 47 44 51 62 65 63 55 59 52 57 57 58 56 63 62 66 63 53 46 56 61 65 65 60 59 46 44 34 32
50 51 51 51 52 53 53 54 54 54 54 54 52 48 57 62 59 49 41 46 53 64 66 61 59 58 58 56 58 56 57 63 66 65 62 55 50 51 59 55 54 55 52 54 52 44 34
50 50 50 50 51 51 53 54 54 54 53 52 51 43 59 62 44 45 43 51 54 60 64 61 64 60 57 59 58 56 56 60 67 67 59 59 49 41 50 60 65 61 56 53 36 42 41
49 50 50 50 51 50 50 53 54 54 53 51 47 50 58 60 40 41 50 52 57 59 59 61 59 62 61 57 54 58 58 62 65 63 59 58 50 38 45 53 59 54 58 58 54 45 42
49 49 50 50 50 50 50 51 54 53 53 52 48 43 49 52 55 48 47 50 51 61 59 63 63 63 59 55 60 57 54 61 63 60 53 59 54 46 38 47 54 50 55 57 52 34 39
49 49 49 50 50 50 51 48 54 53 53 52 47 49 52 43 45 49 51 52 51 52 61 63 61 60 57 51 54 57 56 56 60 55 58 57 47 50 54 56 56 57 54 55 54 51 41
49 49 49 50 50 51 51 46 53 53 53 48 45 50 52 49 53 48 49 50 52 56 58 58 57 60 60 54 56 54 57 55 54 55 54 57 46 48 45 54 53 49 54 54 54 55 52
49 49 49 50 50 50 50 46 53 53 52 45 53 52 56 47 49 46 47 52 55 59 61 65 61 58 55 60 62 60 62 61 60 54 52 51 47 39 36 46 46 35 47 52 53 55 53
49 49 49 50 50 50 48 46 52 52 52 51 54 53 48 44 48 49 53 56 56 58 57 64 64 58 62 66 64 60 58 58 62 57 59 50 47 38 32 34 26 48 59 59 55 56 56
49 49 49 50 49 49 48 48 52 52 53 50 52 51 47 36 52 52 54 55 58 59 58 61 63 64 64 61 49 44 42 43 50 57 56 55 43 34 30 30 42 50 55 53 50 48 56
49 49 49 49 49 49 49 50 51 51 52 50 50 50 50 44 48 59 55 57 53 54 52 52 58 61 59 52 44 37 34 44 44 50 54 54 47 36 29 27 25 44 55 60 58 38 54
49 48 49 48 49 49 50 51 51 51 52 50 48 51 48 47 52 59 54 54 60 55 48 50 50 52 54 36 34 33 35 52 38 38 36 33 33 30 25 26 35 52 58 58 38 39 54
48 48 48 48 49 50 50 50 50 51 52 50 47 51 50 48 51 58 63 59 60 57 45 50 49 49 46 36 35 34 32 43 42 49 41 37 32 28 32 31 29 56 55 45 48 52 54
48 48 48 49 50 50 50 50 50 50 50 52 45 52 54 48 50 57 58 59 60 62 56 53 51 54 51 41 38 38 36 35 39 34 52 37 43 37 39 37 50 54 53 55 55 52 52

GFSGBSN_sfc_temp_060.txt.gz
Temp
61 62 61 61 61 61 62 62 61 60 60 60 60 60 60 60 60 59 58 58 58 58 58 59 59 59 56 55 60 75 68 68 71 73 70 68 64 62 58 62 63 60 61 63 63 64 63
61 60 60 60 60 61 62 61 61 60 60 60 59 59 59 59 59 59 58 57 57 57 57 58 59 59 54 51 75 75 74 70 74 72 69 69 67 67 65 64 61 62 62 61 60 62 64
60 60 60 60 60 60 60 60 60 60 60 59 59 59 59 59 59 58 58 57 57 57 57 58 59 59 55 58 71 71 74 75 74 74 71 73 72 67 66 63 66 64 57 60 60 63 60
59 60 60 59 59 59 59 59 59 60 60 60 60 59 58 57 57 57 57 56 56 57 57 58 59 56 51 72 68 72 73 75 78 76 75 76 74 68 63 65 64 58 57 50 59 65 66
58 59 59 59 59 58 58 58 58 59 59 59 59 58 58 57 56 56 56 56 56 57 58 58 53 54 53 73 72 76 75 75 77 76 75 82 71 62 64 56 53 55 47 50 54 65 63
59 59 59 59 59 59 58 58 58 58 59 59 59 58 58 57 56 55 55 56 57 56 59 62 63 51 61 68 75 77 76 78 73 70 69 67 62 58 57 52 45 49 51 54 52 59 58
58 58 59 58 59 59 59 59 58 57 57 58 58 58 58 57 56 55 53 53 55 53 55 56 59 59 67 75 79 74 78 74 72 66 56 62 55 51 54 61 60 59 56 52 56 60 56
57 57 58 58 58 59 59 59 58 57 57 57 58 58 57 57 57 56 51 50 58 59 50 62 64 64 70 71 65 71 77 67 63 56 59 56 48 61 63 61 57 56 53 53 59 60 57
56 57 57 57 58 58 59 58 58 57 57 57 57 57 57 57 56 52 50 55 64 63 50 59 65 64 66 69 64 67 72 67 60 57 58 51 56 63 61 57 56 55 52 52 53 56 57
55 55 56 56 57 58 57 58 58 57 57 56 56 57 56 55 52 53 52 62 63 60 43 53 60 66 69 70 63 74 75 69 61 57 55 54 61 60 55 55 57 48 59 59 56 51 45
54 55 55 55 56 56 56 57 57 57 57 56 56 56 55 56 51 53 61 62 61 58 30 60 63 75 70 65 66 67 74 68 59 58 57 54 55 56 55 57 61 54 60 59 56 49 46
54 52 55 55 55 56 56 56 56 56 56 56 55 56 55 54 51 54 59 60 59 44 32 56 65 61 61 63 64 68 68 69 66 59 58 57 61 61 59 62 62 64 57 53 50 47 39
53 53 52 55 54 54 55 55 55 56 56 55 55 55 55 60 53 58 58 55 41 37 58 56 57 61 59 57 60 62 60 58 53 48 47 55 56 61 63 58 60 57 49 36 34 34 36
52 53 52 53 54 53 54 55 55 55 55 55 54 54 55 59 55 57 55 47 36 47 50 62 60 59 54 58 58 59 56 52 55 55 48 45 44 56 62 57 52 52 49 36 32 31 38
52 52 52 51 54 53 52 54 55 55 54 55 54 53 53 56 56 57 50 41 39 48 59 57 58 52 52 57 58 56 53 52 57 57 48 45 47 57 61 61 59 51 45 51 43 41 36
52 52 52 52 50 53 53 53 54 55 54 54 51 51 52 57 59 55 46 42 47 58 60 59 50 54 48 53 52 53 52 58 58 61 59 53 44 55 59 62 61 56 57 44 41 34 32
51 51 52 52 51 51 52 53 53 54 55 54 50 46 55 60 58 48 41 44 51 60 60 55 53 53 54 52 54 51 54 59 61 60 59 53 49 49 55 53 53 52 49 49 48 40 33
51 51 51 51 51 51 52 52 53 54 54 51 48 42 56 60 44 40 43 50 52 56 60 57 56 55 54 54 52 52 53 58 61 61 56 55 48 41 50 57 58 54 52 50 36 40 38
50 50 50 50 51 51 51 52 51 54 54 48 45 47 55 57 38 39 46 50 53 54 55 55 55 58 59 54 48 53 54 58 60 61 55 55 46 37 43 51 55 50 54 54 48 41 39
50 50 50 50 50 50 51 51 51 53 54 50 46 40 46 50 50 45 43 45 46 56 54 56 56 57 55 52 56 52 52 58 57 58 54 56 49 44 37 45 50 47 52 53 48 33 38
49 49 50 50 50 50 51 51 52 53 53 50 46 46 49 41 42 48 47 47 46 47 55 58 55 55 52 49 50 51 53 54 57 54 56 54 46 49 51 52 52 50 51 51 49 47 40
49 49 49 49 50 50 50 51 51 52 53 46 44 46 50 44 49 45 46 45 46 50 53 53 52 56 55 52 53 50 53 52 52 53 52 54 45 45 43 48 49 46 50 50 50 50 49
49 49 49 49 49 50 50 50 50 48 52 45 48 51 48 48 46 43 44 47 49 54 56 59 57 55 52 56 59 58 60 59 58 53 49 49 45 37 36 42 43 35 45 49 51 51 51
48 49 49 49 49 49 50 50 50 49 49 49 50 50 46 41 46 45 49 51 51 54 52 58 60 56 60 61 59 57 55 55 55 52 54 45 42 36 31 32 26 46 54 54 50 50 51
47 48 49 49 49 50 50 50 49 49 46 51 52 47 46 37 48 48 49 50 54 56 54 57 60 61 62 56 47 44 40 42 46 52 52 52 40 33 30 30 39 48 52 51 48 44 50
47 49 49 49 49 49 50 49 48 48 46 52 51 49 47 43 45 54 49 52 49 50 49 52 56 56 56 47 40 36 34 42 42 47 51 49 43 37 31 27 25 42 52 56 53 36 50
48 49 49 49 49 49 49 48 47 48 47 50 48 49 45 43 50 55 49 50 56 52 47 49 52 50 52 36 34 33 35 48 37 37 35 32 32 30 24 24 33 48 54 54 38 39 51
48 48 48 49 49 49 49 48 48 48 50 50 47 50 45 45 47 54 57 53 56 56 44 48 47 46 43 37 35 36 32 41 38 45 39 38 32 28 29 22 29 52 52 45 46 48 49
48 48 48 48 48 48 49 48 49 50 52 52 44 49 50 45 45 51 54 55 61 64 55 49 52 48 48 41 38 38 35 33 37 33 46 37 42 36 38 36 48 50 51 50 52 49 48

GFSGBSN_sfc_temp_063.txt.gz
Temp
61 61 61 61 61 61 61 61 61 60 60 60 60 60 60 60 60 59 58 58 58 58 58 58 59 59 56 53 58 72 68 67 68 69 66 65 62 59 55 58 58 54 57 59 60 59 56
60 59 60 60 60 60 61 61 60 60 60 59 59 59 59 59 59 59 58 58 57 57 58 58 59 58 52 49 72 72 71 70 70 67 66 67 66 65 61 59 57 58 58 57 58 59 60
59 59 59 59 59 59 60 59 59 59 59 59 59 59 59 59 59 58 58 57 57 57 57 58 59 58 52 56 67 68 70 72 72 71 68 69 69 63 62 60 63 60 55 58 57 57 59
59 59 59 59 59 58 58 58 58 59 59 59 59 59 58 58 57 57 57 56 56 57 57 58 59 53 50 69 65 68 68 72 73 72 72 72 71 65 61 62 61 55 53 46 58 60 63
58 58 59 58 58 58 58 58 58 58 58 58 58 58 58 57 56 56 56 56 56 57 57 58 51 51 52 70 66 72 73 72 73 72 69 78 67 60 61 53 49 49 43 45 53 62 60
58 58 58 58 58 58 58 58 58 58 58 58 58 58 57 57 56 55 55 56 57 56 57 60 61 50 59 65 71 73 71 74 69 68 65 64 58 54 53 49 41 44 45 49 50 56 55
57 58 58 58 57 58 58 58 58 57 57 57 57 58 57 57 56 55 53 53 54 52 54 55 56 56 62 70 73 69 73 71 68 64 54 58 53 46 50 54 57 55 50 48 54 57 54
57 56 58 58 57 58 58 58 58 57 57 57 57 57 57 56 56 56 51 49 56 56 49 59 60 61 67 68 61 67 73 65 61 54 55 53 48 57 58 58 56 54 49 49 54 57 56
55 56 56 56 58 57 58 58 58 57 56 56 56 56 57 56 56 52 50 53 62 60 47 56 61 60 62 66 59 61 69 64 58 54 53 49 54 60 58 53 54 52 49 48 50 52 53
55 55 55 55 56 57 57 57 57 57 56 56 56 56 56 55 52 53 50 59 59 57 42 51 56 61 65 65 60 69 71 67 58 55 54 52 57 57 53 54 54 46 55 54 53 48 42
54 54 55 54 53 56 55 56 56 56 56 56 56 55 55 55 52 52 58 59 59 56 29 57 59 70 65 62 62 63 70 64 56 56 55 53 52 53 53 55 57 51 57 55 53 47 43
54 54 54 55 54 53 56 55 55 56 56 56 55 55 55 53 53 54 58 58 58 42 31 53 62 58 58 59 60 63 65 66 63 57 54 54 58 57 56 58 59 59 54 52 48 45 37
53 53 53 54 54 53 54 55 55 55 55 55 55 55 54 59 53 56 57 56 42 35 55 53 55 58 55 53 56 58 58 54 51 45 45 51 53 57 60 53 56 53 46 36 34 33 35
53 53 53 53 53 53 52 54 54 54 55 55 54 53 54 58 57 55 56 48 34 44 47 58 57 55 51 55 55 56 53 50 52 51 45 44 42 54 58 54 50 48 47 36 32 31 36
53 53 52 53 53 53 52 53 54 54 54 54 54 52 52 56 58 54 47 39 38 46 56 53 54 49 49 54 54 53 51 50 54 55 47 42 45 54 57 58 57 48 44 48 40 38 33
53 53 52 52 52 53 52 52 53 54 54 54 48 49 50 59 58 53 43 41 45 54 57 54 47 52 45 49 50 50 49 55 55 57 57 51 44 52 55 58 57 53 54 41 38 32 31
53 53 52 52 52 52 52 51 53 53 54 54 48 43 53 58 55 46 38 42 49 58 58 51 49 48 50 49 50 47 51 56 57 56 56 51 47 46 52 51 50 49 45 45 45 38 32
52 52 52 51 51 52 52 51 52 53 52 51 45 37 53 56 43 44 40 47 51 54 57 54 53 51 50 51 49 49 50 55 59 57 53 52 46 40 48 54 56 53 50 47 35 38 35
52 51 51 51 51 51 51 51 51 52 51 47 41 44 53 55 38 40 45 47 51 53 52 52 51 54 53 50 46 51 51 58 59 56 52 53 43 36 42 49 52 49 50 49 45 39 35
52 51 51 51 51 51 51 51 51 52 52 47 42 37 45 48 51 47 43 43 44 54 51 53 51 53 51 49 53 49 51 55 56 58 52 54 46 44 37 44 49 45 49 49 46 33 37
51 51 51 51 51 51 51 51 52 52 52 46 42 42 46 38 41 46 47 45 43 45 51 53 49 49 48 44 47 49 52 52 54 51 53 52 44 45 47 49 49 49 49 47 45 45 39
51 50 50 50 50 51 51 51 51 52 52 41 38 42 47 42 47 45 46 44 43 47 48 47 47 52 52 48 51 49 52 49 50 51 50 51 43 43 40 45 46 44 49 48 47 47 46
51 50 49 50 50 50 50 50 51 51 51 40 45 48 46 45 44 43 44 45 45 50 51 54 52 51 49 53 56 58 57 56 56 52 48 47 42 36 36 40 40 34 42 47 48 49 48
51 50 49 49 49 50 50 50 50 51 49 46 48 47 43 39 42 44 46 48 47 49 48 53 54 51 56 59 57 55 53 53 53 50 52 44 40 34 30 32 25 45 50 50 47 47 48
50 49 49 49 49 50 49 50 50 49 49 45 50 46 44 34 45 47 46 47 49 51 50 53 54 60 59 55 46 43 38 41 45 49 49 48 38 31 30 30 38 46 49 47 46 45 47
49 49 49 48 49 49 49 49 50 50 50 45 47 49 45 41 44 50 46 48 44 45 47 51 56 57 55 46 39 36 34 41 40 44 48 46 41 36 27 26 26 42 49 53 51 37 50
49 48 48 48 49 49 49 49 49 50 49 46 47 49 46 41 45 51 46 45 52 50 46 47 49 49 51 35 32 32 35 46 37 36 35 32 31 30 24 24 34 46 52 52 37 39 49
48 48 48 48 49 49 49 49 49 49 49 46 45 49 45 42 44 49 52 49 51 53 44 46 48 45 40 36 35 34 31 40 39 43 39 38 32 27 26 22 30 50 49 44 45 45 48
47 47 47 48 48 49 49 49 49 49 48 47 42 49 49 43 44 50 51 52 52 60 54 47 49 47 47 40 36 37 34 33 36 33 44 38 41 36 38 37 47 49 49 48 49 47 47

GFSGBSN_sfc_temp_069.txt.gz
Temp
60 60 60 60 60 60 60 60 60 59 58 58 59 59 60 60 60 60 59 58 58 58 58 59 59 59 60 57 61 72 66 66 69 70 71 69 67 66 63 63 63 60 63 62 64 63 63
59 59 59 59 59 60 60 60 59 58 58 58 58 58 59 59 59 59 59 58 58 57 58 58 59 58 58 53 73 71 70 69 72 72 70 70 69 69 66 64 62 63 62 62 62 63 63
58 58 58 59 58 59 59 59 59 60 58 58 58 58 58 58 58 58 58 58 57 57 57 58 58 58 54 59 71 69 68 72 73 73 71 72 73 70 68 64 66 64 61 62 62 63 63
58 58 59 58 58 58 58 58 58 59 59 58 58 57 57 57 57 57 57 56 56 57 58 58 58 57 53 68 68 67 69 72 73 74 73 75 73 70 67 69 64 61 60 56 62 63 63
57 57 58 58 57 57 57 57 58 59 58 58 57 57 56 56 56 56 56 56 56 58 58 58 55 55 55 69 67 73 73 73 72 72 72 76 73 66 65 60 58 57 52 53 58 64 63
58 57 57 57 57 57 57 57 57 58 58 57 57 57 56 56 56 55 55 56 58 56 57 59 60 53 61 65 70 73 72 74 73 71 69 68 64 61 59 58 49 52 52 53 54 61 61
58 58 58 57 57 57 58 57 57 56 57 58 58 57 56 56 55 55 55 56 55 54 54 55 57 56 60 68 71 70 73 71 72 69 60 62 59 55 58 58 59 58 55 54 57 62 59
57 57 57 57 57 57 57 58 56 56 56 57 57 57 56 56 55 56 55 52 56 55 46 57 57 58 64 67 61 66 73 67 65 59 60 59 54 60 61 60 58 57 55 55 59 60 58
56 56 56 56 56 57 57 57 57 55 56 56 56 56 56 55 55 54 54 55 61 60 47 53 57 57 60 64 59 62 68 65 62 56 57 54 59 60 59 57 55 56 54 53 55 56 58
56 55 55 56 56 56 56 56 56 56 55 55 55 56 55 54 51 54 52 59 60 57 42 49 54 58 61 62 57 68 70 68 62 58 56 57 60 58 56 56 57 51 58 57 54 53 51
55 55 55 55 55 55 55 55 55 56 56 55 55 55 55 55 52 51 57 59 58 55 33 56 55 68 62 60 63 61 69 67 58 57 59 56 55 55 54 56 58 56 58 57 56 53 52
54 55 55 55 54 54 54 54 54 55 54 54 55 55 55 53 53 56 58 59 57 42 31 50 57 54 54 58 61 62 65 68 65 58 58 58 61 60 60 60 60 60 57 54 52 51 45
54 54 55 55 54 54 54 54 54 54 54 53 54 54 53 56 50 56 58 54 41 34 52 50 51 55 53 53 56 58 57 56 54 49 49 55 57 61 62 58 59 58 53 45 42 42 43
53 53 54 54 54 54 54 53 53 53 53 53 53 53 53 54 58 58 55 45 34 43 45 55 55 53 50 54 55 56 53 53 56 55 48 48 46 57 60 60 57 54 54 44 37 38 43
53 53 53 54 54 54 53 53 53 53 53 53 53 49 48 52 54 55 47 37 39 44 51 51 54 48 48 52 53 54 52 54 57 57 51 45 48 58 59 61 61 53 50 53 43 41 40
53 53 53 53 53 53 53 53 53 53 53 53 46 45 47 55 55 50 42 40 44 52 55 54 46 51 45 48 50 51 49 55 55 58 60 53 47 55 58 61 58 57 57 47 46 37 36
52 53 53 53 53 53 53 52 52 53 53 53 44 39 51 55 53 44 36 40 47 54 56 51 48 47 49 48 50 48 50 55 59 55 59 55 52 50 56 54 54 52 51 49 50 46 40
51 52 52 52 53 52 52 52 52 52 52 49 42 33 50 54 38 41 38 45 50 52 56 53 53 50 49 50 47 48 50 55 57 57 54 56 50 44 51 57 58 56 54 52 44 42 41
51 52 51 52 52 52 52 52 52 51 52 44 38 38 49 51 33 37 43 45 50 49 51 50 49 52 53 50 46 49 51 57 56 57 54 54 47 43 47 52 55 53 53 51 48 45 42
51 51 52 51 52 52 52 52 51 51 52 46 38 32 40 43 46 42 40 42 43 51 50 53 51 53 51 49 51 49 50 55 54 57 51 56 48 47 44 49 52 47 50 51 51 42 45
51 51 51 51 51 52 51 51 51 51 51 45 39 36 41 33 36 40 43 44 42 43 50 51 47 49 49 46 48 48 52 53 55 51 55 56 48 48 50 51 52 52 51 49 49 51 46
51 51 51 51 51 51 51 51 50 51 51 42 35 36 42 41 42 39 42 41 42 46 47 46 45 49 51 47 50 47 52 51 51 52 51 52 48 47 46 47 50 48 51 50 49 50 51
51 51 51 51 51 51 51 50 50 50 50 40 42 42 40 41 40 37 38 42 44 49 49 52 50 49 46 51 55 54 56 56 56 54 49 48 45 43 42 44 46 39 46 50 51 52 53
51 51 51 51 50 50 50 49 50 50 50 44 44 42 37 35 39 39 41 44 44 47 45 50 52 49 54 60 58 57 54 52 52 51 53 46 45 41 37 37 32 51 53 54 52 53 53
50 50 51 51 51 50 50 49 49 50 51 46 45 41 39 34 42 42 43 42 46 49 47 49 52 55 57 55 45 41 42 44 46 48 49 51 43 37 36 38 43 49 50 51 49 54 55
49 49 50 50 50 50 49 49 49 50 51 48 44 45 42 38 39 47 44 44 41 44 43 47 53 56 55 47 40 35 35 42 42 43 47 46 45 43 33 35 33 47 53 55 56 45 57
48 48 49 50 48 49 49 49 49 50 51 48 41 46 42 38 42 44 43 43 48 46 42 44 49 49 53 36 33 34 37 48 40 37 37 37 36 38 33 35 40 49 53 55 44 49 56
48 49 49 49 47 49 49 49 49 50 51 48 43 45 43 37 42 44 46 46 49 49 41 43 46 46 41 37 34 36 35 42 41 45 41 41 37 35 34 33 37 52 52 48 54 52 54
48 49 49 46 49 49 49 49 49 50 51 50 40 45 46 40 42 46 47 49 54 56 50 49 47 47 46 41 38 38 35 35 42 40 46 40 46 42 44 45 52 53 56 55 54 55 52

GFSGBSN_sfc_temp_072.txt.gz
Temp
60 59 59 60 60 60 60 60 59 59 59 58 58 58 59 60 60 59 59 59 59 59 59 59 59 59 68 69 74 81 68 68 78 80 81 79 75 75 71 73 73 70 73 73 73 72 73
58 59 59 59 59 60 60 60 59 59 58 59 58 58 58 58 59 59 59 58 58 58 58 59 59 58 66 63 81 82 80 79 82 82 81 80 78 79 74 72 71 72 72 72 73 73 73
58 58 58 58 59 58 59 58 58 59 59 59 59 58 57 58 58 58 58 58 57 57 58 59 59 65 63 68 83 84 79 81 84 84 80 83 82 77 77 71 75 73 68 71 72 73 72
58 58 58 58 57 58 57 57 58 58 59 58 58 58 57 57 57 57 57 57 57 57 58 58 59 65 64 79 83 78 83 81 83 84 82 83 82 78 75 76 72 69 70 64 71 72 72
58 58 58 58 57 57 57 57 57 58 58 58 58 58 57 56 56 56 56 56 56 58 58 58 63 63 65 74 74 83 84 80 82 81 81 81 80 75 74 69 66 68 62 62 65 73 71
58 58 58 58 58 57 57 57 57 57 57 57 58 58 57 56 55 55 55 56 60 58 60 64 67 60 70 72 78 80 84 84 79 78 75 75 75 70 71 68 57 60 61 62 63 70 70
58 58 58 58 58 57 57 57 57 56 56 57 57 58 57 57 55 55 59 68 66 62 58 62 66 66 70 77 78 78 82 79 80 77 69 72 67 63 68 70 70 67 64 62 68 71 68
57 57 57 57 57 57 57 58 57 56 56 56 57 57 57 57 55 55 60 61 62 61 54 64 64 66 72 74 67 75 81 74 72 67 71 66 62 70 70 69 66 66 62 62 67 68 65
56 56 56 57 57 57 57 57 57 56 56 55 56 56 56 56 55 58 61 63 68 66 55 59 65 66 69 70 67 73 77 76 70 67 67 64 66 70 68 66 63 65 62 62 62 66 68
55 55 55 56 56 56 56 56 56 56 56 55 55 55 55 55 54 64 61 68 68 65 51 55 58 64 68 71 63 80 79 75 71 66 69 67 72 66 65 64 66 59 68 66 63 61 59
54 55 55 55 55 55 55 55 55 56 56 56 55 55 55 54 56 57 64 67 66 62 40 59 59 74 70 67 70 70 81 74 68 67 67 64 65 63 62 65 67 62 67 65 64 62 61
54 54 54 55 54 55 54 54 54 55 55 55 54 54 54 55 59 61 66 65 63 49 39 55 60 59 59 64 66 72 71 77 78 69 69 69 71 69 68 68 69 67 64 63 63 62 52
53 54 54 54 54 54 55 54 54 54 54 54 54 54 53 58 55 66 64 59 47 41 59 54 54 57 60 59 62 65 65 63 62 56 57 64 65 70 69 65 67 66 61 52 48 49 49
53 53 53 54 54 54 54 54 54 54 53 53 53 52 53 55 63 61 55 47 37 52 54 59 58 57 54 61 62 63 62 60 68 66 62 56 53 65 70 67 64 64 63 53 41 45 51
53 53 53 53 53 54 54 54 53 53 53 53 53 52 49 54 59 55 47 37 45 53 58 57 57 51 52 59 61 61 61 61 66 68 59 56 57 68 68 70 70 61 57 64 53 51 50
53 53 53 53 53 53 53 53 53 53 53 53 52 48 48 55 57 48 40 42 51 61 61 57 50 55 50 54 55 58 59 65 65 70 73 63 54 64 65 68 66 65 69 54 57 42 41
52 52 52 53 52 52 53 53 53 53 52 52 46 40 54 58 52 42 35 44 53 62 62 56 54 53 54 55 58 57 59 61 69 66 71 68 61 57 63 61 62 60 59 60 60 56 46
52 52 52 52 52 52 52 53 53 52 52 49 44 33 56 57 35 39 37 49 53 57 61 57 57 55 53 56 56 57 58 63 69 70 61 68 62 54 59 67 69 68 64 63 52 50 53
51 51 52 52 52 52 52 52 52 52 51 45 38 39 54 54 31 34 45 48 54 55 57 55 54 56 57 54 52 58 59 65 68 67 64 66 58 50 53 59 62 61 64 64 62 57 52
50 51 51 52 52 52 52 52 52 51 52 46 40 32 42 42 50 43 42 45 46 55 56 59 57 58 54 52 57 54 55 59 63 68 56 63 62 56 50 57 64 57 61 63 61 52 53
51 51 51 51 51 52 52 52 52 51 51 45 41 36 45 32 35 44 46 48 46 46 54 58 54 55 55 50 52 52 55 56 58 54 63 65 57 60 62 64 64 62 62 62 59 60 54
51 51 51 50 50 51 51 52 51 51 50 42 36 41 48 46 44 41 43 41 46 50 52 51 51 55 57 53 54 48 54 56 57 59 61 64 57 59 56 61 61 58 62 63 62 63 63
50 50 50 51 51 50 51 51 50 50 49 40 49 54 52 44 44 37 38 43 46 53 55 57 56 57 53 55 58 58 59 60 61 58 57 57 58 53 49 56 55 45 55 61 63 64 63
50 50 50 50 51 51 50 50 50 50 49 45 48 53 43 41 44 42 44 46 47 51 49 56 58 55 61 64 63 61 61 59 60 61 62 56 56 55 47 42 36 58 65 68 64 66 68
50 50 50 50 51 51 50 50 50 50 50 49 52 52 46 38 48 46 44 46 48 50 51 54 58 63 65 59 51 46 44 49 54 60 59 61 57 48 41 45 55 56 56 60 59 61 71
49 50 50 50 50 50 50 50 49 50 50 48 52 58 51 43 43 52 46 46 45 47 46 53 62 64 62 53 48 41 39 46 48 49 54 56 56 52 43 41 37 56 66 68 67 53 72
49 49 50 50 50 50 50 50 50 50 50 47 52 56 52 44 51 53 47 43 52 51 48 50 53 54 60 49 37 39 42 53 43 43 40 43 45 43 46 41 53 61 61 66 50 55 69
48 48 50 49 50 50 50 50 49 50 50 48 50 56 53 46 48 52 55 49 51 52 47 53 51 52 51 43 39 44 43 50 50 54 49 47 44 41 46 37 39 60 59 57 66 64 68
48 48 50 49 50 50 50 49 49 50 49 51 45 53 57 47 47 51 51 52 47 58 56 55 54 55 56 50 48 52 42 44 50 44 57 46 53 52 52 55 65 64 69 69 69 70 65

GFSGBSN_sfc_temp_075.txt.gz
Temp
59 59 59 59 59 59 60 60 60 59 59 59 59 59 59 59 59 59 59 58 59 59 59 59 60 59 68 74 78 85 69 70 82 84 83 83 80 79 75 78 79 75 78 80 81 79 79
59 59 59 59 59 59 59 59 59 59 59 59 59 58 58 58 58 58 58 58 58 58 59 59 59 58 69 65 89 90 88 84 87 85 85 86 83 84 78 77 76 79 78 79 80 80 79
59 59 58 58 58 58 58 58 58 58 59 59 58 58 58 58 58 57 57 57 57 57 58 59 60 67 68 70 90 92 87 87 91 88 84 88 87 81 82 75 81 79 72 76 78 80 78
59 59 59 58 58 58 57 57 58 58 58 58 58 58 57 57 57 57 57 56 56 57 58 59 59 69 65 88 92 88 90 86 90 91 88 89 88 82 79 82 77 73 74 63 59 74 78
59 59 59 58 58 57 57 57 57 57 58 57 58 58 58 57 57 56 56 56 56 57 59 60 65 68 66 75 78 86 89 83 86 88 87 88 84 78 80 71 68 72 60 62 68 78 76
58 59 58 58 58 58 57 57 57 57 57 57 57 57 58 57 57 55 55 55 62 59 63 71 72 63 72 75 84 86 91 87 84 82 79 78 78 73 74 70 57 62 61 66 66 68 75
58 58 58 58 58 58 58 58 57 57 56 57 57 57 57 57 56 55 59 72 69 65 67 68 70 68 74 81 84 82 88 83 83 79 69 76 69 65 71 73 73 71 68 66 70 75 71
57 57 57 57 57 58 58 58 57 56 56 56 56 56 56 56 56 56 61 65 70 67 59 73 73 72 76 78 70 80 88 75 74 68 74 72 64 74 76 75 71 69 66 66 72 74 70
56 56 56 56 56 57 57 58 57 56 56 56 55 56 55 55 56 58 63 68 76 72 60 66 74 71 73 74 67 76 82 78 73 69 70 66 71 76 71 70 66 67 65 65 65 71 73
55 55 55 55 56 56 56 57 57 56 56 56 55 55 55 54 53 66 66 74 75 71 54 63 65 70 73 74 65 81 85 79 75 68 71 70 76 70 69 67 70 62 72 68 67 65 53
55 55 55 55 55 55 55 55 56 56 56 56 55 55 55 54 56 60 68 73 73 66 40 67 66 79 75 68 74 73 86 79 70 70 71 67 70 68 66 68 72 66 71 68 68 65 65
54 54 55 54 54 54 54 54 55 55 55 55 55 55 54 56 57 60 63 67 65 51 40 61 67 63 62 65 66 77 76 81 80 72 73 72 79 75 72 74 73 73 68 68 68 65 53
54 54 54 54 54 54 54 54 54 54 54 54 54 54 55 62 51 67 63 54 48 43 65 60 61 64 62 61 60 68 68 66 64 58 59 67 70 75 74 68 72 70 64 52 49 51 50
53 53 53 54 54 54 54 54 54 54 54 54 53 53 56 61 63 57 50 43 41 54 57 66 63 62 57 62 60 65 65 62 69 68 64 58 55 69 73 70 66 66 65 54 42 45 51
53 53 53 53 53 53 53 54 54 54 54 53 53 56 57 59 61 54 42 36 46 56 65 62 63 56 57 59 60 61 63 63 68 70 61 59 60 75 75 74 73 66 61 70 58 59 52
52 52 52 52 53 53 53 53 53 53 53 53 51 49 52 60 61 49 37 36 52 64 66 65 55 61 55 56 53 57 61 68 66 72 75 68 58 70 71 75 74 68 72 57 59 44 41
52 52 52 52 52 52 52 53 53 53 53 53 46 40 56 61 55 42 31 40 52 65 68 62 59 58 59 57 55 55 59 66 70 70 74 71 64 64 69 64 64 65 62 64 65 57 47
51 51 52 52 52 52 52 52 53 53 53 49 43 34 58 60 37 37 34 47 52 59 65 65 65 63 59 60 56 53 55 65 72 72 66 70 64 58 61 72 75 72 66 65 54 53 57
51 51 52 52 52 52 52 52 52 52 52 46 37 39 56 57 32 35 44 47 51 55 59 61 59 62 63 56 52 58 59 68 72 70 67 69 60 52 57 65 68 64 68 68 66 64 55
51 51 51 52 52 52 52 52 52 52 52 47 38 33 43 43 51 46 43 45 46 55 56 63 61 64 59 54 59 56 57 62 66 70 59 65 63 58 51 59 65 59 64 67 65 54 55
51 51 51 52 52 51 52 52 52 52 51 45 39 40 48 32 36 46 49 49 46 47 55 59 58 60 58 51 53 54 58 59 61 58 66 67 57 62 64 67 68 66 65 65 62 63 56
51 51 51 51 51 51 51 51 51 51 51 43 36 45 50 50 46 44 45 45 47 51 54 53 54 59 61 55 56 53 57 55 57 62 63 68 57 61 58 65 66 62 66 66 66 66 66
50 50 50 51 50 51 51 50 50 51 49 41 45 56 51 47 46 41 44 46 48 54 57 60 58 57 56 60 62 61 62 60 60 57 60 62 59 56 50 62 61 52 60 65 66 69 67
50 50 50 50 50 50 51 50 50 50 50 47 49 55 46 41 47 46 47 49 49 53 51 58 61 56 63 71 66 63 57 58 58 59 63 58 58 57 48 46 39 59 70 70 66 69 71
49 50 50 50 50 50 50 50 49 50 50 47 53 52 49 39 50 49 48 47 51 53 52 55 61 65 68 64 54 48 43 43 49 56 59 62 56 50 43 46 55 61 62 64 63 63 73
49 49 50 50 50 50 50 50 49 50 50 47 52 60 56 46 48 56 50 49 47 47 50 53 61 66 64 57 50 42 39 47 46 49 61 61 59 51 46 42 39 57 67 73 73 56 74
49 49 50 50 50 50 49 50 50 49 50 48 49 58 56 48 53 56 46 46 53 51 48 54 54 56 60 48 39 41 44 56 47 44 41 45 47 44 47 43 54 68 70 74 52 56 74
49 49 49 50 50 50 49 50 49 50 50 48 46 59 56 50 53 57 57 53 53 52 46 54 51 53 50 43 40 46 46 53 53 57 54 45 45 42 47 39 39 66 63 58 67 74 75
48 48 49 49 49 50 49 50 49 50 50 49 43 58 59 50 51 56 56 59 61 61 54 54 54 55 57 51 51 51 47 50 53 45 63 49 54 51 55 55 68 68 70 71 76 74 75